www.pogodaiklimat.ru

Погода и климат >> Архив погоды >> Канада >> Cambridge Bay Arpt


ПОГОДА в Cambridge Bay Arpt

  • Прогноз погоды в Cambridge Bay Arpt
  • Монитор погоды в Cambridge Bay Arpt
  • Климат города

АРХИВ ПОГОДЫ в Cambridge Bay Arpt

Время (UTC), дата Ветер
(напр.,м/с)
 
Видим.   Явления Облачность Т
(С)
Тd
(С)
f
(%)
Тe
(С)
Тes
(С)
Комфортность P
(гПа)
Po
(гПа)
Тmin
(С)
Tmax
(С)
R
(мм)
R24
(мм)
S
(см)
18 10.12 Ю 8 16 км ледяные иглы {снег} 6/1 1500 м
[Sc Ac trans Ci fib]
-10.3 -12.3 85 -20 -20 982.6 978.6 -18.5 -10.3 0.0 16
21 10.12 Ю 5 16 км 4/4 1500 м
[]
-11.4 -13.5 84 -19 -19 981.9 977.9
00 11.12 Ю 7 16 км {снег} ясно -10.8 -12.7 86 -20 -20 980.9 976.9 -14.7 -10.3 0.0 16
03 11.12 Ю 6 16 км 9/9 300 м
[]
-8.1 -10.0 86 -17 -17 980.1 976.1
06 11.12 ЮЗ 6 8000 м слабый снег 10/10 300 м
[Sc]
-7.2 -9.3 85 -15 -15 979.6 975.6 -14.7 -7.0 0.0 91
09 11.12 З 8 6000 м 10/10 300 м
[]
-12.6 -14.8 84 -23 -23 981.3 977.3
12 11.12 СЗ 8 4000 м слабый снег 10/5 600 м
[Sc Ac As Ci fib]
-16.5 -19.2 80 -28 -28 986.6 982.6 -16.5 -7.0 0.2 16
15 11.12 СЗ 6 9000 м 10/10 600 м
[]
-16.7 -19.6 78 -26 -26 990.0 986.0
18 11.12 СЗ 6 12 км слабый снег 10/10 600 м
[Sc]
-17.1 -20.1 77 -27 -27 991.6 987.6 -18.1 -7.2 0.4 16
21 11.12 СЗ 5 12 км 10/10 600 м
[]
-19.0 -22.2 76 -28 -28 993.9 989.8
00 12.12 С 3 16 км слабый снег 10/10 600 м
[Sc]
-18.7 -22.3 73 -26 -26 994.7 990.6 -19.0 -16.4 0.4 16
03 12.12 СВ 6 12 км 10/10 50 м
[]
-20.0 -23.6 73 -31 -31 опасность
обморожения
995.0 990.9
06 12.12 СВ 6 16 км слабый снег 10/10 50 м
[Sc]
-21.8 -25.2 74 -33 -33 опасность
обморожения
995.8 991.7 -21.8 -7.2 0.2 121
09 12.12 СВ 7 6000 м 10/10 600 м
[]
-22.5 -25.9 74 -35 -35 опасность
обморожения
995.2 991.1
12 12.12 СВ 10 4000 м слабый снег 10/10 600 м
[Sc]
-23.1 -26.5 74 -38 -38 опасность
обморожения
994.4 990.3 -23.2 -7.2 0.2 17
15 12.12 СВ 12 1600 м 9/9 300 м
[]
-23.0 -26.4 74 -39 -39 опасность
обморожения
993.7 989.6
18 12.12 200 м слабый снег {метель} н/о -23.1 -26.4 74 -40 -40 опасность
обморожения
993.5 989.3 -23.4 -21.3 0.2 17
21 12.12 СВ 14 200 м 9/9 100 м
[]
-23.1 -26.4 74 -40 -40 опасность
обморожения
994.3 990.1
00 13.12 200 м слабый снег {метель} н/о -22.9 -26.2 74 -40 -40 опасность
обморожения
994.9 990.7 -23.4 -22.8 0.4 17
03 13.12 СВ 14 400 м 9/9 100 м
[]
-22.6 -25.9 74 -39 -39 опасность
обморожения
995.1 990.9
06 13.12 400 м слабый снег {метель} н/о -22.7 -25.9 75 -39 -39 опасность
обморожения
995.1 990.9 -23.4 -21.3 0.6 232
09 13.12 СВ 17 200 м 9/9 100 м
[]
-23.6 -27.0 73 -42 -42 опасность
обморожения
994.8 990.6
12 13.12 СВ 16 200 м слабый снег {метель} 8/1 100 м
[St]
-22.9 -26.2 74 -40 -40 опасность
обморожения
995.0 990.8 -23.7 -21.3 1 17
15 13.12 СВ 15 200 м 6/6 50 м
[]
-22.7 -25.9 75 -40 -40 опасность
обморожения
995.2 991.0
18 13.12 200 м слабый снег {метель} н/о -21.5 -24.7 75 -38 -38 опасность
обморожения
994.9 990.7 -23.7 -21.5 0.8 17
21 13.12 СВ 15 200 м 5/5 300 м
[]
-20.4 -23.5 76 -37 -37 опасность
обморожения
995.2 991.0
00 14.12 200 м слабый снег {метель} н/о -19.4 -22.4 77 -35 -35 опасность
обморожения
996.0 991.9 -23.7 -19.4 2 17
03 14.12 СВ 15 200 м 6/6 300 м
[]
-19.4 -22.4 77 -35 -35 опасность
обморожения
996.6 992.4
06 14.12 200 м слабый снег н/о -19.8 -22.8 77 -35 -35 опасность
обморожения
997.2 993.1 -23.7 -19.1 1 213
09 14.12 СВ 14 200 м 6/6 300 м
[]
-20.3 -23.3 77 -36 -36 опасность
обморожения
998.3 994.2
12 14.12 200 м слабый снег н/о -20.8 -23.8 77 -36 -36 опасность
обморожения
999.1 994.9 -20.8 -19.1 0.6 18
15 14.12 СВ 14 200 м 6/6 300 м
[]
-20.7 -23.8 76 -37 -37 опасность
обморожения
999.6 995.4
18 14.12 200 м слабый снег н/о -21.9 -25.1 75 -38 -38 опасность
обморожения
1000.0 995.8 -21.9 -19.8 0.4 18
21 14.12 С 14 <100 м 1/1 300 м
[]
-22.9 -26.2 74 -39 -39 опасность
обморожения
1001.1 996.9
00 15.12 С 12 <100 м сильная метель {снег} ясно -24.0 -27.5 73 -40 -40 опасность
обморожения
1002.5 998.3 -24.0 -20.4 0.0 18
03 15.12 С 9 600 м ясно -23.9 -27.4 73 -38 -38 опасность
обморожения
1003.3 999.0
06 15.12 С 8 600 м туман {метель} ясно -24.8 -28.4 72 -38 -38 опасность
обморожения
1004.0 999.7 -24.8 -19.8 152
09 15.12 С 8 600 м ясно -24.5 -28.1 72 -38 -38 опасность
обморожения
1005.2 1000.9
12 15.12 С 9 4000 м слабый снег {туман, метель} 8/8 300 м
[Frnb]
-24.8 -28.5 71 -39 -39 опасность
обморожения
1006.0 1001.7 -25.2 -19.8 0.0 18
15 15.12 С 6 4000 м 9/9 300 м
[]
-25.4 -29.1 71 -38 -38 опасность
обморожения
1007.0 1002.7
18 15.12 С 8 4000 м слабый снег 10/10 300 м
[Sc]
-24.8 -28.6 71 -39 -39 опасность
обморожения
1008.8 1004.5 -25.5 -24.4 0.2 18
21 15.12 С 7 3200 м 9/9 300 м
[]
-24.8 -28.6 71 -38 -38 опасность
обморожения
1010.2 1005.9
00 16.12 С 4 16 км слабый снег 9/6 1500 м
[Sc Ac As]
-24.0 -27.9 70 -34 -34 опасность
обморожения
1012.4 1008.1 -25.5 -24.0 0.2 18
03 16.12 С 6 16 км 9/9 1500 м
[]
-25.7 -29.7 69 -38 -38 опасность
обморожения
1013.8 1009.5
06 16.12 С 3 16 км ледяные иглы {снег} 4/1 50 м
[St]
-26.2 -30.2 69 -35 -35 опасность
обморожения
1015.8 1011.5 -26.2 -24.0 0.2 111
09 16.12 СЗ 6 16 км 1/1 50 м
[]
-28.2 -32.3 68 -41 -41 опасность
обморожения
1017.6 1013.3
12 16.12 СЗ 6 16 км ледяные иглы {снег} ясно -28.6 -32.7 68 -42 -42 опасность
обморожения
1019.3 1015.0 -28.7 -24.0 0.0 19
15 16.12 СЗ 4 16 км ясно -30.8 -35.0 66 -42 -42 опасность
обморожения
1019.9 1015.5
18 16.12 СЗ 5 19 км ледяные иглы {снег} 1/1 1500 м
[Sc]
-31.5 -35.7 66 -44 -44 опасность
обморожения
1021.7 1017.3 -31.7 -26.2 0.0 19
21 16.12 СЗ 6 24 км 1/1 1500 м
[]
-31.4 -35.7 66 -45 -45 опасность
обморожения
1022.8 1018.4
00 17.12 СЗ 6 24 км ледяные иглы {снег} ясно -32.8 -37.1 65 -47 -47 опасность
обморожения
1023.8 1019.4 -33.0 -28.5 0.0 19
03 17.12 СВ 2 24 км ясно -33.5 -37.6 66 -42 -42 опасность
обморожения
1023.0 1018.6
06 17.12 ЮЗ 2 24 км {снег} ясно -32.6 -36.8 66 -41 -41 опасность
обморожения
1023.1 1018.7 -34.1 -26.2 0.0 151
09 17.12 СВ 4 24 км ясно -34.4 -38.5 66 -47 -47 опасность
обморожения
1022.5 1018.1
12 17.12 СВ 4 24 км ясно -34.0 -37.9 68 -46 -46 опасность
обморожения
1021.2 1016.8 -34.9 -26.2 19
15 17.12 В 2 24 км 3/0
[]
-30.4 -34.2 69 -37 -37 опасность
обморожения
1019.8 1015.4

 

Местоположение метеостанции Cambridge Bay Arpt (Канада): широта 69.10 долгота -105.10 высота над уровнем моря 27 м.

В архиве по умолчанию представлена погода в Cambridge Bay Arpt за последнюю неделю. Архивные данные за месяц целиком и за предыдущие месяцы, начиная с января 2011 года, Вы можете получить, выбрав интересующий диапазон дат из раскрывающегося списка и нажав кнопку "Ввод!".


*Определитесь, кто Вы:
робот инопланетянин человек

Внимание! Время в таблицах - всемирное. Для получения местного времени необходимо прибавить поправку, которая в Cambridge Bay Arpt равна -7 ч.

Смотрите также архив погоды в соседних городах и на ближайших метеорологических станциях:

Погода в Cape Peel West (Канада) (108 км)
Погода в Hat Island (Канада) (223 км)
Погода в Gjoa Haven Climate (Канада) (374 км)
Погода в Kugluktuk (Канада) (432 км)
Погода в Kugluktuk Airport (Канада) (432 км)
Погода в Lupin (Канада) (452 км)
Погода в Lupin (maps) (Канада) (452 км)
Погода в Spence bay (Канада) (454 км)
Погода в Robertson Lake (Канада) (460 км)
Погода в Shepherd Bay (Канада) (466 км)

Пояснения к столбцам:

Ветер - указаны скорость ветра в м/с - средняя за 10 мин, порывы в срок и между сроками (в фигурных скобках) и направление, откуда дует ветер: С - северный, СВ - северо-восточный, В - восточный, ЮВ - юго-восточный, Ю - южный, ЮЗ - юго-западный, З - западный, СЗ - северо-западный.
Видимость - горизонтальная дальность видимости в метрах или километрах. При видимости от 1 до 10 км при отсутствии осадков обычно наблюдается дымка, при ухудшении видимости до 1 км и менее - туман. В сухую погоду видимость может ухудшаться дымом, пылью или мглою.
Явления - указаны атмосферные явления, наблюдавшиеся в срок или в последний час перед сроком; фигурными скобками обозначены явления, наблюдавшиеся между сроками (за 1-3 часа до срока); квадратными скобками обозначены град или гололедные отложения с указанием их диаметра в мм.
Облачность - указаны через наклонную черту общая и нижняя облачность в баллах и высота нижней границы облаков в метрах; квадратными скобками обозначены формы облаков: Ci - перистые, Cs - перисто-слоистые, Cc - перисто-кучевые, Ac - высококучевые, As - высокослоистые, Sc - слоисто-кучевые, Ns - слоисто-дождевые, Cu - кучевые, Cb - кучево-дождевые. Подробнее классификацию облаков см. в Атласе облаков (PDF).
T - Температура воздуха - температура, измеренная на высоте 2 м над землей.
Td - Температура точки росы - температура, при понижении до которой содержащийся в воздухе водяной пар достигнет насыщения.
f - Относительная влажность воздуха - влажноcть воздуха, измеренная на высоте 2 м над землей.
Te - Эффективная температура - температура, которую ощущает одетый по сезону человек в тени. Характеристика душности погоды. При расчете учитывается влияние влажности воздуха и скорости ветра на теплоощущения человека.
Tes - Эффективная температура на солнце - температура, которую ощущает человек, с поправкой на солнечный нагрев. Характеристика знойности погоды. Зависит от высоты солнца над горизонтом, облачности и скорости ветра. Ночью, в пасмурную погоду, а также при ветре 12 м/с и более поправка равна нулю.
P - Атмосферное давление - приведенное к уровню моря атмосферное давление.
Po - Атмосферное давление - измеренное на уровне метеостанции атмосферное давление.
Tmin - Минимальная температура - минимум температуры воздуха на высоте 2 м над землей.
Tmax - Максимальная температура - максимум температуры воздуха на высоте 2 м над землей.
R - Количество осадков - Количество выпавших осадков за период времени, мм. При наведении курсора мыши на число - период времени, за который выпало указанное количество осадков.
R24 - Количество осадков - Количество выпавших осадков за 24 часа, мм.
S - Снежный покров - Высота снежного покрова, см. При наведении курсора мыши на число - состояние снежного покрова и степень покрытия местности в баллах.